User: anonymous   Login
Location: Unspecified
(0.0000°N, 0.0000°E)
Time: 20:47:13
(UTC+00:00)
Language:

FLTSATCOM F5 - Orbit

View from above orbital plane
View from above orbital plane
View from above satellite
View from above satellite

Ground track
Ground track

The orbit is defined by the following mean orbital elements,

1 12635U          26150.14888412 +.00000000 +00000-0 +00000-0 0 00000
2 12635  13.9151 307.8806 0008623 168.4121 196.5932  0.98606843    02
Epoch (UTC): 30 May 2026 03:34:23
Eccentricity: 0.0008623
inclination: 13.9151°
perigee height: 36223 km
apogee height: 36297 km
right ascension of ascending node: 307.8806°
argument of perigee: 168.4121°
revolutions per day: 0.98606843
mean anomaly at epoch: 196.5932°

The dashed part of the orbit path shows where the satellite is in the earth's shadow,  

DLR